Location: ??????
(38.0677°N, 22.9870°E)
Time: 09:35:13
(UTC+00:00)

SL-24 DEB - Pass Details

Date: 23 May 2024
Orbit: 648 x 683 km, 92.0° (Epoch: 19 June)

Event Time Altitude Azimuth Distance (km) Brightness Sun altitude
Rises 02:15:07 0° 3° (N) 2,982 8.2 -10.2°
Reaches altitude 10° 02:17:22 10° 2° (N) 2,063 7.3 -9.9°
Maximum altitude 02:21:54 80° 276° (W) 664 4.1 -9.2°
Drops below altitude 10° 02:26:22 10° 190° (S) 2,042 6.3 -8.4°
Sets 02:28:35 0° 189° (S) 2,949 7.1 -8.1°
